Stations météo

Publicité
Perpignan, France (7747): Température de l'air & dewpoint: 12.08.2017 03:00:00 - 18.08.2017 03:00:00 (CEST)Perpignan, France (7747): Température de l'air 5cm: 12.08.2017 03:00:00 - 18.08.2017 03:00:00 (CEST)Perpignan, France (7747): Température de l'air -20cm & Température de l'air -100cm: 12.08.2017 03:00:00 - 18.08.2017 03:00:00 (CEST)Perpignan, France (7747): Vitesse du vent & gusts: 12.08.2017 03:00:00 - 18.08.2017 03:00:00 (CEST)Perpignan, France (7747): Direction du vent: 12.08.2017 03:00:00 - 18.08.2017 03:00:00 (CEST)Perpignan, France (7747): reduced air pressure: 12.08.2017 03:00:00 - 18.08.2017 03:00:00 (CEST)Perpignan, France (7747): visibility: 12.08.2017 03:00:00 - 18.08.2017 03:00:00 (CEST)Perpignan, France (7747): Ensoleillement: 12.08.2017 03:00:00 - 18.08.2017 03:00:00 (CEST)Perpignan, France (7747): Quantités de précipitations: 12.08.2017 03:00:00 - 18.08.2017 03:00:00 (CEST)
Date & Time tt [°C] td [°C] tt 5cm [°C] tt -20cm [°C] tt -100cm [°C] ff [km/h] ff [knt] fx [km/h] fx [knt] dd ppp [hPa] vv [km] sd [min] rr [mm]
18.08.2017 03:00:00 22,7 14,5 18,9 30,0 26,1 6 3 9 5 WSW 1016,3 60 0 0,0
18.08.2017 02:00:00 23,8 14,2 19,5 30,3 26,1 3 2 8 4 SSE 1016,8 60 0 0,0
18.08.2017 01:00:00 25,6 14,1 21,7 30,6 26,1 6 3 14 7 WNW 1017,1 60 0 0,0
18.08.2017 00:00:00 26,0 14,1 22,2 30,9 26,1 7 4 17 9 WSW 1017,3 60 0 0,0
17.08.2017 23:00:00 26,5 13,9 22,5 31,1 26,1 8 5 16 8 WSW 1017,6 60 0 0,0
17.08.2017 22:00:00 27,7 15,7 22,8 31,3 26,1 4 2 8 4 SW 1017,6 60 0 0,0
17.08.2017 21:00:00 29,2 15,3 24,6 31,3 26,1 3 1 8 5 WNW 1017,3 60 14 0,0
17.08.2017 20:00:00 30,7 15,5 30,4 31,2 26,1 6 4 17 9 E 1017,1 60 35 0,0
17.08.2017 19:00:00 32,1 15,6 35,3 30,9 26,1 13 7 22 12 ESE 1016,9 53 60 0,0
17.08.2017 18:00:00 33,3 15,8 37,7 30,5 26,1 14 8 28 15 SE 1016,7 60 60 0,0
17.08.2017 17:00:00 33,9 15,4 38,7 29,9 26,0 11 6 26 14 ESE 1017,0 41 60 0,0
17.08.2017 16:00:00 33,5 15,9 38,9 29,3 26,1 13 7 31 17 ESE 1017,5 30 60 0,0
17.08.2017 15:00:00 34,0 15,0 39,4 28,6 26,0 5 3 27 14 E 1017,9 20 60 0,0
17.08.2017 14:00:00 32,7 15,7 39,1 28,1 26,1 9 5 27 15 NNE 1018,6 56 60 0,0
17.08.2017 13:00:00 31,2 16,0 38,5 27,7 26,0 6 3 16 9 NNE 1018,8 49 60 0,0
17.08.2017 12:00:00 30,1 16,5 36,2 27,4 26,1 7 4 22 12 WSW 1019,2 60 60 0,0
17.08.2017 11:00:00 28,6 16,5 32,0 27,4 26,1 13 7 29 16 NW 1019,5 60 60 0,0
17.08.2017 10:00:00 26,7 16,3 29,1 27,5 26,1 20 11 31 17 NW 1019,7 60 60 0,0
17.08.2017 09:00:00 25,1 16,5 25,3 27,6 26,0 13 7 23 13 WNW 1019,6 20 60 0,0
17.08.2017 08:00:00 23,4 16,7 21,5 27,8 26,1 7 4 16 9 W 1019,3 60 11 0,0
17.08.2017 07:00:00 22,8 16,6 21,6 28,0 26,1 10 5 26 14 W 1019,0 59 0 0,0
17.08.2017 06:00:00 23,3 17,1 22,4 28,2 26,0 14 8 29 16 WNW 1018,6 56 0 0,0
17.08.2017 05:00:00 23,6 17,1 22,7 28,4 26,1 18 10 29 16 NW 1018,8 51 0 0,0
17.08.2017 04:00:00 23,5 17,3 22,9 28,5 26,1 14 8 33 18 WNW 1019,2 48 0 0,0
17.08.2017 03:00:00 24,0 17,3 23,3 28,8 26,0 18 10 31 17 WNW 1019,2 51 0 0,0
17.08.2017 02:00:00 24,2 17,4 23,3 29,0 26,1 14 7 28 15 WNW 1019,2 46 0 0,0
17.08.2017 01:00:00 24,7 17,4 24,0 29,2 26,0 16 9 30 16 NW 1019,2 43 0 0,0
17.08.2017 00:00:00 25,2 17,7 24,7 29,3 26,0 20 11 36 19 NW 1019,2 42 0 0,0
16.08.2017 23:00:00 25,7 17,6 25,2 29,5 26,1 21 11 41 22 NW 1019,4 43 0 0,0
16.08.2017 22:00:00 26,3 17,6 26,0 29,6 26,0 24 13 44 24 WNW 1019,3 41 0 0,0
16.08.2017 21:00:00 27,3 17,8 26,9 29,6 26,0 20 11 37 20 WNW 1018,8 43 0 0,0
16.08.2017 20:00:00 29,3 17,5 29,6 29,5 26,0 18 10 32 17 NNW 1018,4 49 48 0,0
16.08.2017 19:00:00 30,1 16,5 31,2 29,2 26,0 2 1 15 8 SE 1018,0 59 43 0,0
16.08.2017 18:00:00 30,1 16,1 32,3 28,8 26,0 9 5 18 10 E 1017,9 46 36 0,0
16.08.2017 17:00:00 30,8 16,4 36,1 28,3 26,0 12 7 21 12 E 1018,1 60 60 0,0
16.08.2017 16:00:00 30,2 16,2 35,6 27,8 26,0 13 7 20 11 E 1018,4 52 60 0,0
16.08.2017 15:00:00 30,0 16,4 33,5 27,5 26,0 9 5 22 12 E 1018,6 36 36 0,0
16.08.2017 14:00:00 28,8 16,4 32,3 27,1 26,0 11 6 25 13 ESE 1019,0 60 28 0,0
16.08.2017 13:00:00 28,9 18,4 31,0 26,7 26,0 16 9 22 12 E 1019,1 39 12 0,0
16.08.2017 12:00:00 28,2 18,0 32,9 26,5 26,1 5 3 14 7 NE 1019,4 52 36 0,0
16.08.2017 11:00:00 27,4 18,4 30,0 26,4 26,0 3 2 9 5 E 1019,6 60 49 0,0
16.08.2017 10:00:00 25,5 18,4 28,2 26,4 26,0 6 3 11 6 E 1019,7 40 60 0,0
16.08.2017 09:00:00 22,3 18,9 22,2 26,6 26,1 0 0 9 5 N 1019,9 34 55 0,0
16.08.2017 08:00:00 19,6 18,4 16,5 26,7 26,0 0 0 7 4 N 1019,7 20 20 0,0
16.08.2017 07:00:00 18,7 17,7 16,2 26,9 26,0 4 2 9 5 SW 1019,6 16 0 0,0
16.08.2017 06:00:00 19,0 17,7 16,2 27,1 26,0 3 1 4 2 W 1019,4 13 0 0,0
16.08.2017 05:00:00 19,5 18,2 17,6 27,3 26,0 6 3 8 4 N 1019,6 11 0 0,0
16.08.2017 04:00:00 19,7 18,5 17,2 27,6 26,0 5 3 10 5 NW 1019,9 18 0 0,0
16.08.2017 03:00:00 19,8 18,3 17,2 27,7 26,0 3 2 8 5 SW 1020,0 20 0 0,0
16.08.2017 02:00:00 20,8 19,1 17,9 27,9 26,0 0 0 8 4 N 1020,8 13 0 0,0
16.08.2017 01:00:00 21,2 19,3 19,9 28,1 26,0 4 2 7 4 NE 1020,1 19 0 0,0
16.08.2017 00:00:00 21,6 19,7 20,1 28,3 26,0 6 3 7 4 NNE 1020,2 19 0 0,0
15.08.2017 23:00:00 21,7 19,6 21,2 28,4 26,0 3 2 8 4 N 1020,0 23 0 0,0
15.08.2017 22:00:00 22,0 19,5 21,3 28,6 26,0 6 3 9 5 N 1020,1 31 0 0,0
15.08.2017 21:00:00 22,2 19,2 22,1 28,7 26,0 6 3 13 7 NE 1019,8 32 0 0,0
15.08.2017 20:00:00 22,8 19,4 23,6 28,7 26,0 11 6 26 14 NE 1019,4 32 21 0,0
15.08.2017 19:00:00 23,4 19,3 22,5 28,8 26,0 16 9 33 18 ENE 1018,3 39 8 0,0
15.08.2017 18:00:00 22,2 19,4 21,3 28,6 26,0 29 16 46 25 NNE 1017,4 23 0 0,0
15.08.2017 17:00:00 23,5 18,4 25,0 28,4 26,0 10 5 35 19 NE 1021,0 57 5 0,0
15.08.2017 16:00:00 24,7 18,9 29,0 28,0 26,0 26 14 39 21 NE 1019,5 31 29 0,0
15.08.2017 15:00:00 26,1 20,0 30,3 27,7 26,0 26 14 37 20 ENE 1019,0 31 52 0,0
15.08.2017 14:00:00 25,9 20,2 27,8 27,5 26,0 23 12 33 18 E 1019,0 31 10 0,0
15.08.2017 13:00:00 24,8 19,8 27,4 27,1 26,0 21 11 33 18 ESE 1019,3 49 17 0,0
15.08.2017 12:00:00 25,7 18,6 29,4 27,0 26,0 16 8 27 14 ENE 1019,4 50 38 0,0
15.08.2017 11:00:00 25,2 18,4 25,6 26,9 26,0 10 5 18 10 ENE 1019,5 39 47 0,0
15.08.2017 10:00:00 23,4 18,9 25,1 27,0 26,0 6 4 11 6 NE 1019,7 35 37 0,0
15.08.2017 09:00:00 21,7 18,9 22,4 27,1 26,0 0 0 6 3 N 1019,8 31 1 0,0
15.08.2017 08:00:00 20,6 19,1 18,1 27,3 26,0 3 2 6 4 SSW 1019,6 27 29 0,0
15.08.2017 07:00:00 20,1 18,8 18,0 27,5 25,9 4 2 10 5 WNW 1019,3 18 0 0,0
15.08.2017 06:00:00 20,4 18,9 18,5 27,7 26,0 0 0 10 6 N 1019,1 14 0 0,0
15.08.2017 05:00:00 21,2 19,7 19,4 27,8 26,0 8 4 15 8 NNW 1018,8 20 0 0,0
15.08.2017 04:00:00 19,7 18,2 19,3 28,0 25,9 7 4 11 6 N 1018,6 10 0 0,0
15.08.2017 03:00:00 20,8 19,1 20,3 28,2 26,0 9 5 22 12 NNW 1018,1 19 0 0,0
15.08.2017 02:00:00 21,7 19,8 21,2 28,5 26,0 16 9 24 13 NNW 1018,2 30 0 0,0
15.08.2017 01:00:00 21,7 19,4 21,3 28,7 26,0 13 7 20 11 NNW 1018,1 28 0 0,0
15.08.2017 00:00:00 21,8 19,2 21,4 28,9 25,9 13 7 18 10 NNW 1017,7 29 0 0,0
14.08.2017 23:00:00 22,3 19,5 21,8 29,1 25,9 12 6 19 10 NNW 1017,8 28 0 0,0
14.08.2017 22:00:00 23,0 19,2 22,6 29,2 25,9 14 8 18 10 N 1017,5 35 0 0,0
14.08.2017 21:00:00 24,2 18,4 24,0 29,2 25,9 11 6 18 10 NE 1016,8 47 11 0,0
14.08.2017 20:00:00 25,2 19,1 26,3 29,2 25,9 15 8 22 12 ENE 1016,4 45 60 0,0
14.08.2017 19:00:00 25,8 19,9 27,3 29,0 25,9 14 8 36 19 ENE 1016,3 43 29 0,0
14.08.2017 18:00:00 26,9 20,3 28,1 28,7 25,9 21 12 36 19 E 1016,6 20 29 0,0
14.08.2017 17:00:00 27,9 19,9 32,6 28,3 25,9 21 11 41 22 E 1016,7 58 60 0,0
14.08.2017 16:00:00 27,6 20,4 32,2 27,8 25,9 23 12 34 18 E 1016,8 20 56 0,0
14.08.2017 15:00:00 27,7 20,3 30,5 27,5 25,9 23 12 34 18 E 1017,4 33 55 0,0
14.08.2017 14:00:00 25,7 19,1 27,1 27,3 25,9 19 10 31 17 ENE 1018,0 30 17 0,0
14.08.2017 13:00:00 23,3 19,9 27,1 27,1 25,9 22 12 32 17 NE 1018,6 13 1 0,0
14.08.2017 12:00:00 23,3 19,7 27,1 27,0 25,9 18 10 29 15 NNE 1018,6 20 37 0,0
14.08.2017 11:00:00 23,8 19,7 26,0 26,9 25,9 18 10 27 15 NE 1018,4 29 19 0,0
14.08.2017 10:00:00 22,4 19,0 23,7 27,0 25,9 13 7 20 11 NE 1018,2 20 11 0,0
14.08.2017 09:00:00 21,5 18,5 21,7 27,2 25,9 8 5 13 7 NE 1018,0 20 0 0,0
14.08.2017 08:00:00 20,8 18,9 19,8 27,4 25,9 9 5 18 10 NNE 1017,6 20 0 0,0
14.08.2017 07:00:00 20,0 18,5 16,3 27,6 25,9 11 6 16 8 ENE 1017,4 19 0 0,0
14.08.2017 06:00:00 19,6 16,6 16,4 27,9 25,9 0 0 10 5 N 1017,1 42 0 0,0
14.08.2017 05:00:00 20,5 18,1 19,0 28,2 25,9 10 5 14 8 NE 1016,9 35 0 0,0
14.08.2017 04:00:00 20,5 13,9 18,0 28,4 25,9 7 4 15 8 NE 1017,3 60 0 0,0
14.08.2017 03:00:00 21,8 13,9 18,3 28,6 25,9 4 2 9 5 S 1017,0 60 0 0,0
14.08.2017 02:00:00 22,3 13,9 19,9 28,8 25,9 6 3 11 6 SW 1017,2 60 0 0,0
14.08.2017 01:00:00 23,2 15,5 20,8 29,0 25,9 7 4 9 5 WSW 1017,3 59 0 0,0
14.08.2017 00:00:00 24,3 15,5 22,5 29,2 25,9 4 2 13 7 S 1017,4 60 0 0,0
13.08.2017 23:00:00 24,9 15,5 23,3 29,3 25,9 10 6 14 7 W 1017,5 60 0 0,0
13.08.2017 22:00:00 26,2 15,3 25,3 29,5 25,9 6 4 9 5 NNW 1017,2 53 0 0,0
13.08.2017 21:00:00 26,4 15,7 26,1 29,5 25,9 7 4 9 5 NNE 1017,0 60 19 0,0
13.08.2017 20:00:00 27,7 14,7 28,5 29,4 25,9 6 3 16 9 E 1016,6 60 30 0,0
13.08.2017 19:00:00 28,5 13,6 29,3 29,2 25,9 11 6 24 13 ESE 1016,6 60 49 0,0
13.08.2017 18:00:00 29,0 13,2 32,4 28,7 25,9 18 10 31 17 ESE 1016,8 60 60 0,0
13.08.2017 17:00:00 28,8 13,5 32,9 28,2 25,8 20 11 32 17 ESE 1017,2 59 60 0,0
13.08.2017 16:00:00 29,6 13,8 33,9 27,6 25,9 17 9 35 19 ESE 1017,7 60 60 0,0
13.08.2017 15:00:00 30,5 12,4 34,5 27,0 25,9 12 7 31 17 E 1018,1 59 60 0,0
13.08.2017 14:00:00 30,1 13,0 35,3 26,4 25,9 16 9 26 14 E 1018,4 58 60 0,0
13.08.2017 13:00:00 29,8 10,8 38,3 26,0 25,9 8 4 25 14 NNW 1018,7 60 60 0,0
13.08.2017 12:00:00 28,7 10,8 34,3 25,7 25,9 9 5 22 12 NNW 1019,4 60 60 0,0
13.08.2017 11:00:00 27,2 11,2 31,5 25,6 25,9 11 6 22 12 NW 1019,7 60 60 0,0
13.08.2017 10:00:00 25,7 12,2 27,4 25,7 25,9 15 8 33 18 NW 1019,7 55 60 0,0
13.08.2017 09:00:00 23,7 12,3 23,0 25,8 25,9 18 10 27 14 WNW 1019,4 55 60 0,0
13.08.2017 08:00:00 21,5 12,1 17,0 26,0 25,9 11 6 17 9 W 1019,6 58 41 0,0
13.08.2017 07:00:00 19,3 11,3 16,8 26,3 25,9 5 3 16 9 SW 1019,4 60 0 0,0
13.08.2017 06:00:00 20,4 11,3 16,4 26,4 25,9 5 3 16 9 W 1019,3 60 0 0,0
13.08.2017 05:00:00 21,0 11,1 19,7 26,6 25,9 12 7 18 10 W 1019,3 60 0 0,0
13.08.2017 04:00:00 21,6 11,0 20,3 26,7 25,9 8 4 26 14 W 1019,5 60 0 0,0
13.08.2017 03:00:00 22,3 11,1 19,9 27,0 25,9 14 8 27 15 WNW 1019,5 60 0 0,0
13.08.2017 02:00:00 21,8 10,9 20,2 27,2 26,0 5 3 24 13 W 1020,3 60 0 0,0
13.08.2017 01:00:00 22,1 10,6 20,6 27,4 25,9 11 6 29 15 WSW 1020,4 60 0 0,0
13.08.2017 00:00:00 22,3 10,1 20,7 27,6 26,0 15 8 26 14 WNW 1020,2 60 0 0,0
12.08.2017 23:00:00 23,2 9,6 21,1 27,9 26,0 10 5 30 16 W 1020,7 60 0 0,0
12.08.2017 22:00:00 24,4 9,2 23,5 28,0 26,0 20 11 39 21 NW 1020,1 60 0 0,0
12.08.2017 21:00:00 25,4 8,8 24,7 28,0 26,0 22 12 39 21 NW 1019,6 60 36 0,0
12.08.2017 20:00:00 27,0 7,4 27,3 27,9 26,0 22 12 42 23 NW 1019,2 44 60 0,0
12.08.2017 19:00:00 28,1 6,8 30,7 27,5 26,0 25 13 45 24 NNW 1018,8 60 60 0,0
12.08.2017 18:00:00 28,7 6,7 32,3 27,2 26,0 24 13 44 24 NW 1019,0 49 60 0,0
12.08.2017 17:00:00 28,9 8,0 32,4 26,6 26,0 26 14 43 23 NNW 1019,3 50 60 0,0
12.08.2017 16:00:00 28,6 7,8 33,2 26,0 26,1 25 14 44 24 NW 1019,6 51 60 0,0
12.08.2017 15:00:00 28,1 8,4 31,5 25,3 26,1 22 12 54 29 NW 1020,4 53 60 0,0
12.08.2017 14:00:00 27,3 8,2 32,3 24,8 26,1 22 12 37 20 NNW 1020,9 58 60 0,0
12.08.2017 13:00:00 26,1 7,2 31,1 24,3 26,1 20 11 35 19 NNW 1021,6 60 60 0,0
12.08.2017 12:00:00 25,1 6,8 29,6 24,1 26,1 21 12 34 18 NNW 1022,1 60 60 0,0
12.08.2017 11:00:00 23,1 9,5 27,4 24,0 26,1 13 7 27 15 NNW 1022,6 60 60 0,0
12.08.2017 10:00:00 21,0 9,9 22,8 24,0 26,1 16 9 32 18 NW 1023,0 58 60 0,0
12.08.2017 09:00:00 19,7 9,8 19,7 24,2 26,2 17 9 26 14 NW 1023,1 58 60 0,0
12.08.2017 08:00:00 17,9 10,3 14,8 24,3 26,1 6 3 16 9 W 1022,9 60 54 0,0
12.08.2017 07:00:00 16,8 9,9 13,5 24,5 26,2 9 5 27 15 W 1022,8 60 0 0,0
12.08.2017 06:00:00 17,0 10,4 14,5 24,7 26,2 5 3 23 12 WNW 1022,3 60 0 0,0
12.08.2017 05:00:00 17,9 10,8 17,1 24,9 26,2 14 7 40 22 NW 1022,6 60 0 0,0
12.08.2017 04:00:00 18,9 10,7 17,6 25,1 26,2 26 14 37 20 NW 1022,6 60 0 0,0
12.08.2017 03:00:00 18,9 10,7 17,5 25,3 26,2 16 8 28 15 WNW 1022,9 60 0 0,0

tt = Température de l'air
td = dewpoint
tt 5cm = Température de l'air 5cm
tt -20cm = Température de l'air -20cm
tt -100cm = Température de l'air -100cm
ff = Vitesse du vent
fx = gusts
dd = Direction du vent
ppp = reduced air pressure
vv = visibility
sd = Ensoleillement
rr = Quantités de précipitations

stations d'obs. à proximité